Location: Asheville, NC
(35.6000°N, 82.5500°W)
Time: 03:31:35
(UTC-04:00)

HO-68 - Pass Details

Date: 11 March 2018
Orbit: 1192 x 1205 km, 100.1° (Epoch: 17 June)

Event Time Altitude Azimuth Distance (km) Brightness Sun altitude
Rises 20:44:33 0° 196° (SSW) 4,074 ? -15.1°
Reaches altitude 10° 20:47:36 10° 208° (SSW) 3,115 ? -15.7°
Maximum altitude 20:53:29 28° 264° (W) 2,085 ? -16.9°
Drops below altitude 10° 20:59:26 10° 321° (NW) 3,135 ? -18.1°
Sets 21:02:33 0° 333° (NNW) 4,105 ? -18.7°
